Starlink 3162

operational
NORAD ID: 49411 Int'l Des: 2021-104 Owner: SPXS Country: US Constellation: starlink
LEOCIRCULAR

Über Starlink 3162

Beschreibung wird geladen...

Live-Position

3D-Globus wird geladen...

Nächste Überflüge

Höhenverlauf

Altitude vs Time

uPlot chart will show altitude changes over time

Zweizeiliger Elementsatz

1 49411U 21104D 26034.33425028 .00001601 00000-0 11865-3 0 9991
2 49411 53.2191 13.3479 0001499 87.3223 272.7940 15.08842278233584
Epoch: 3. Feb. 2026 • Age: 20 hours

Aktueller Status

Höhe 541.2 km
Geschwindigkeit 7.60 km/s
Subsatellitenpunkt 32.94°N, 29.04°W
Startdatum 13. Nov. 2021
Alter 4.2 years
Typ internet

Technische Details

Klassifizierung Payload
Masse 290.00 kg
Trockenmasse 270.00 kg
Gesamtmasse 290.00 kg
Länge 0.20 m
Durchmesser 2.80 m
Spannweite 9.00 m
Form Box + pan
Hersteller SPXS
Bus-Typ Starlink
Phasenstatus In Orbit
Besitzer/Staat SPXS/US

Große Konstellationen

Loading constellations...